Other Public Products
Issued by NWS Grand Forks, ND

Home | Current Version | Previous Version | Text Only | Print | Product List | Glossary Off
Versions: 1 2 3 4 5 6 7 8 9 10 11 12 13 14 15 16 17 18 19 20 21 22 23 24 25 26 27 28 29 30 31 32 33 34 35 36 37 38 39 40 41 42 43 44 45 46 47 48 49 50

000
FPUS83 KFGF 101710
OPUFGF
PRAIRIE TO PINES WEATHER ROUNDUP
NATIONAL WEATHER SERVICE EASTERN NORTH DAKOTA/GRAND FORKS ND
1100 AM CST SAT DEC 10 2016

 **SATELLITE DATA USED TO AUGMENT SKY COVER AT AUTOMATED STATIONS**
 *****  WEATHER ACROSS EASTERN NORTH DAKOTA  *****

CITY           SKY/WX    TMP DP  RH WIND       PRES   REMARKS
GRAND FORKS    CLOUDY    -4 -10  75 E5        30.45F WCI -15
GRAND FORKS AF CLOUDY    -6 -11  77 E5        30.44F WCI -17
GRAND CITY NWS NOT AVBL
BUXTON         NOT AVBL
DEVILS LAKE    CLOUDY    -8 -11  84 SE5       30.35F WCI -19
FARGO          CLOUDY    -1  -8  72 E3        30.45R
WAHPETON ARPT  CLOUDY    -4  -9  77 CALM      30.45R
$$

 *****  WEATHER ACROSS CENTRAL AND WESTERN NORTH DAKOTA  *****

CITY           SKY/WX    TMP DP  RH WIND       PRES   REMARKS
JAMESTOWN      CLOUDY    -7 -11  83 SE7       30.33F WCI -21
BISMARCK       CLOUDY   -14 -17  87 NE7       30.30F WCI -30
MINOT          CLOUDY   -15 -19  82 SE3       30.27F
MINOT AFB      CLOUDY   -17 -22  75 SE2       30.27F
GARRISON         N/A     -9 -13  83 SE9       30.23F WCI -26
WILLISTON      LGT SNOW  -2  -9  72 E13       30.17S WCI -20
DICKINSON      CLOUDY    -3  -8  79 E14       30.05F WCI -22
HETTINGER      CLOUDY    -3  -7  82 SE14      30.05F WCI -22
$$

 *****  OTHER OBSERVATIONS NORTHEAST NORTH DAKOTA  *****

CITY           SKY/WX    TMP DP  RH WIND       PRES   REMARKS
WALHALLA         N/A     -9  -9 100 SE3       30.43F
LANGDON        FAIR      -9 -15  77 S5        30.33F WCI -21
CAVALIER         N/A     -4 -13  65 CALM      30.45F
GRAFTON        FAIR      -9 -15  77 E5        30.48F WCI -21
CANDO          FAIR      -9 -13  84 SE3       30.36F
FORT TOTTEN      N/A     -5 -10  78 S6        29.95S WCI -18
ROLLA          FAIR     -13 -18  77 S7        30.29F WCI -29
RUGBY            N/A    -13 -17  84 SE5       30.31F WCI -25
 ***** THE ABOVE OBSERVATIONS ARE NON NWS ARE NOT QUALITY
        CONTROLLED AND MAY MIS-REPORT RAIN FOR SNOW...
$$

 *****  OTHER OBSERVATIONS SOUTHEAST NORTH DAKOTA *****

CITY           SKY/WX    TMP DP  RH WIND       PRES   REMARKS
COOPERSTOWN    FAIR      -9 -15  77 CALM      30.38S
VALLEY CITY    FLURRIES  -4  -8  84 E5        30.38F WCI -15
OAKES          NOT AVBL
GWINNER        FAIR      -2  -6  84 E7        30.38F WCI -16
SHEYENNE NWR     N/A     -5 -13  69 SE2       29.95S
BUFFALO        NOT AVBL
WYNDMERE       NOT AVBL
 ***** THE ABOVE OBSERVATIONS ARE NON NWS ARE NOT QUALITY
       CONTROLLED AND MAY MIS-REPORT RAIN FOR SNOW...
$$

  *****  WEATHER ACROSS NORTHERN MINNESOTA  *****

CITY           SKY/WX    TMP DP  RH WIND       PRES   REMARKS
FLAG ISLAND    MOSUNNY   -2  -8  78 NW5       30.41S WCI -12
WARROAD        MOSUNNY   -8 -11  84 CALM      30.42F
ROSEAU         CLOUDY    -6  -9  84 CALM      30.43F HAZE
HALLOCK        CLOUDY    -9 -15  77 CALM      30.46S
THF RVR FALLS  CLOUDY     1  -5  75 SE3       30.43F
HALSTAD          N/A     -8 -13  78 SE2         N/A
FOSSTON        CLOUDY    -2  -8  78 NE5       30.39F WCI -12
BAUDETTE       SUNNY     -5  -9  83 CALM      30.40S
WASKISH        SUNNY      1  -2  85 CALM      30.39F
CROOKSTON      SUNNY     -6 -11  77 CALM      30.45F
$$
  *****  WEATHER ACROSS CENTRAL AND WEST MINNESOTA  *****

CITY           SKY/WX    TMP DP  RH WIND       PRES   REMARKS
BEMIDJI        SUNNY     -7 -10  83 CALM      30.37F
PARK RAPIDS    CLOUDY    -6 -11  79 SW3       30.35F
WADENA         CLOUDY    -2  -8  78 E5        30.36F WCI -12
DETROIT LAKES    N/A     -4  -8  84 CALM      30.38F
MOORHEAD       CLOUDY    -6  -9  84 E3        30.45S
FERGUS FALLS   CLOUDY    -6  -9  84 CALM      30.46F
ELBOW LAKE     FAIR      -6 -10  85 CALM      30.40F
MORRIS MN      CLOUDY    -2  -8  78 CALM      30.39F
STAPLES        NOT AVBL
WHEATON        CLOUDY     0  -6  78 SE3       30.44S
$$
  *****  WEATHER ELSEWHERE ACROSS MINNESOTA  *****

CITY           SKY/WX    TMP DP  RH WIND       PRES   REMARKS
DULUTH         CLOUDY     2  -5  72 W3        30.37F
INTRNTL FALLS  SUNNY     -4  -8  83 CALM      30.39F
ELY            MOSUNNY    0  -6  78 W6        30.37F WCI -12
CLOQUET        CLOUDY     1  -6  71 CALM      30.38F
BRAINERD       MOSUNNY    2  -3  80 CALM      30.38F
HIBBING        MOSUNNY   -2  -8  76 W3        30.38F
ALEXANDRIA     CLOUDY    -1  -5  82 SE6       30.37F WCI -13
SAINT CLOUD    MOSUNNY    4  -1  80 CALM      30.42F
MINNEAPOLIS    CLOUDY     8   0  69 CALM      30.45F
$$

  *****  WEATHER ACROSS SOUTH DAKOTA  *****

CITY           SKY/WX    TMP DP  RH WIND       PRES   REMARKS
SIOUX FALLS    LGT SNOW  12   9  87 E9        30.29F VSB 1   WCI   0
BROOKINGS      LGT SNOW   6   2  83 E8        30.31R VSB 1   WCI  -7
WATERTOWN      LGT SNOW   1  -3  83 E6        30.31R VSB 1   WCI -10
HURON          SNOW       8   5  87 E8        30.31F VSB 1/2 WCI  -4
SISSETON         N/A     -2  -7  79 VRB3      30.39F
ABERDEEN       LGT SNOW   0  -8  69 NE9       30.34F WCI -15
MITCHELL       LGT SNOW  13  10  88 E10       30.29F VSB 3/4 WCI   0
PIERRE         LGT SNOW   3  -2  79 E16       30.17F VSB 1   WCI -16
MOBRIDGE       LGT SNOW   0  -7  72 E15       30.20F WCI -19
RAPID CITY     CLOUDY     3  -1  83 SE12      29.94F WCI -13
$$

  *****  SOME WEATHER IN NEARBY STATES *****

CITY           SKY/WX    TMP DP  RH WIND       PRES   REMARKS
GLASGOW MT     LGT SNOW  -1  -6  79 E18       29.99F WCI -22
GREAT FALLS MT FLURRIES   4   1  88 CALM      29.70F
CHEYENNE WY    CLOUDY    47  21  35 W29G40    29.84F
SCOTTSBLUFF NE CLOUDY    20  14  77 E7        29.86F WCI  11
OMAHA NE       CLOUDY    26  17  68 SE10      30.34F WCI  16
DES MOINES IA  SNOW      23  20  88 SE9       30.40F VSB 1/2 WCI  13
DAVENPORT IA   CLOUDY    23  13  65 SW3       30.48F
CHICAGO IL     PTSUNNY   22  13  68 W10       30.49F WCI  11
EAU CLAIRE WI  CLOUDY    11   2  67 CALM      30.44F
LA CROSSE WI   CLOUDY    14   6  70 SW3       30.49F
$$

  *****  SOME NATIONAL WEATHER *****

CITY           SKY/WX    TMP DP  RH WIND       PRES   REMARKS
LA GUARDIA NY  PTSUNNY   35  20  54 NW9       30.37F
RALEIGH NC     SUNNY     38  12  34 CALM      30.53F
ATLANTA GA     SUNNY     43  19  38 N8        30.51F
NEW ORLEANS LA SUNNY     46  27  47 NE10G20   30.52F
OKLAHOMA CITY  CLOUDY    41  21  44 S22G30    30.30F
ALBUQUERQUE NM MOSUNNY   36  26  67 CALM      30.27R
SALT LAKE CITY CLOUDY    42  39  89 CALM      29.92F
LOS ANGELES CA CLOUDY    56  54  93 E5        30.19R FOG
BOISE ID       CLOUDY    36  34  92 E7        29.85S
SEATTLE WA     LGT RAIN  39  37  92 SE10      29.86S
$$

*** WEATHER ACROSS MANITOBA...SASKATCHEWAN AND ONTARIO ***
                ***ONTARIO***

CITY           SKY/WX    TMP DP  RH WIND       PRES   REMARKS
GERALDTON      PTSUNNY    1  -4  78 CALM      30.29F
THUNDER BAY    MOSUNNY    9  -2  61 NW10      30.40F WCI  -6
SIOUX LOOKOUT  CRYSTALS  -6 -11  77 VRB2      30.34F
TORONTO        PTSUNNY   27  21  80 SW7       30.32F WCI  19
BIG TROUT LK   SUNNY     -9 -15  77 W12       30.33F WCI -29
PICKLE LAKE    FLURRIES  -6 -11  77 W6        30.31F WCI -18
DRYDEN         SUNNY     -6  -9  84 W7        30.35S WCI -20
KENORA         LGT SNOW  -4  -8  84 W5        30.36F FOG     WCI -15
$$
                *** MANITOBA***

CITY           SKY/WX    TMP DP  RH WIND       PRES   REMARKS
BRANDON        MOSUNNY  -18 -24  76 W6        30.34F WCI -33
DAUPHIN        SUNNY    -20 -26  76 W5        30.37F WCI -33
ISLAND LAKE    FLURRIES  -4  -8  84 SW5       30.36F WCI -15
PILOT MOUND      N/A    -15 -20  76 S3          N/A
THE PAS        MOSUNNY   -8 -15  71 S7        30.32F WCI -22
THOMPSON       FLURRIES  -4  -9  77 S5        30.28F WCI -15
WINNIPEG       MOSUNNY   -9 -15  77 CALM      30.46F
LYNN LAKE      LGT SNOW -11 -15  84 SW6       30.17F WCI -25
CHURCHILL      MOCLDY   -13 -18  77 W12       30.21F WCI -33
GILLAM         FLURRIES  -2  -8  78 SW8       30.30F WCI -17
$$
                ***SASKATCHEWAN***

CITY           SKY/WX    TMP DP  RH WIND       PRES   REMARKS
ESTEVAN        CLOUDY   -15 -20  76 E9        30.20F WCI -33
KINDERSLEY     CRYSTALS  -4  -9  77 E18       29.98F WCI -26
LLOYDMINSTER   CRYSTALS -17 -20  83 SE5       30.06F WCI -29
PRINCE ALBERT  CRYSTALS -15 -20  76 NE2       30.23F
REGINA         MOSUNNY  -13 -18  77 SE15      30.18F WCI -36
YORKTON        SUNNY    -13 -18  77 SE5       30.27F WC1F1C2F2C3F3C4F4C5F5C6F6C7F7C8F8C9F9CaFaCbFbCcFcCdFdCe!



USA.gov is the U.S. government's official web portal to all federal, state and local government web resources and services.